TimeMDT,TemperatureF,Dew PointF,Humidity,Sea Level PressureIn,VisibilityMPH,Wind Direction,Wind SpeedMPH,Gust SpeedMPH,PrecipitationIn,Events,Conditions,WindDirDegrees,DateUTC
12:53 AM,48.0,37.0,66,29.94,10.0,West,9.2,-,0.00,,Overcast,280,2011-10-11 06:53:00
1:53 AM,45.0,41.0,86,29.96,10.0,WNW,5.8,-,0.00,Rain,Light Rain,300,2011-10-11 07:53:00
2:53 AM,44.1,41.0,89,29.95,10.0,North,3.5,-,0.03,Rain,Light Rain,10,2011-10-11 08:53:00
3:16 AM,44.6,42.8,93,30.04,10.0,ENE,3.5,-,0.00,,Overcast,60,2011-10-11 09:16:00
4:53 AM,44.1,41.0,89,29.94,10.0,Calm,Calm,-,N/A,,Overcast,0,2011-10-11 10:53:00
5:00 AM,44.6,39.2,81,30.05,10.0,Calm,Calm,-,N/A,,Overcast,0,2011-10-11 11:00:00
5:53 AM,44.1,39.9,85,29.94,10.0,Calm,Calm,-,N/A,,Overcast,0,2011-10-11 11:53:00
8:53 AM,45.0,41.0,86,29.99,10.0,Calm,Calm,-,N/A,,Overcast,0,2011-10-11 14:53:00
9:53 AM,46.9,39.9,77,29.99,10.0,Calm,Calm,-,N/A,,Overcast,0,2011-10-11 15:53:00
10:53 AM,48.0,39.9,74,29.99,10.0,Calm,Calm,-,N/A,,Overcast,0,2011-10-11 16:53:00
11:53 AM,50.0,39.9,68,29.97,10.0,Calm,Calm,-,N/A,,Mostly Cloudy,0,2011-10-11 17:53:00
12:53 PM,55.0,39.9,57,29.93,10.0,Variable,3.5,-,N/A,,Overcast,0,2011-10-11 18:53:00
1:53 PM,57.9,39.0,49,29.89,10.0,Variable,4.6,-,N/A,,Mostly Cloudy,0,2011-10-11 19:53:00
2:53 PM,57.9,37.9,47,29.88,10.0,NE,5.8,-,N/A,,Overcast,40,2011-10-11 20:53:00
3:53 PM,57.0,39.9,53,29.88,10.0,ENE,6.9,-,N/A,,Overcast,60,2011-10-11 21:53:00
4:53 PM,55.9,41.0,57,29.89,10.0,ENE,6.9,-,0.00,Rain,Light Rain,70,2011-10-11 22:53:00
5:53 PM,54.0,43.0,66,29.92,10.0,East,8.1,-,0.00,,Overcast,90,2011-10-11 23:53:00
6:53 PM,52.0,43.0,71,29.93,10.0,East,5.8,-,N/A,,Overcast,90,2011-10-12 00:53:00
7:53 PM,48.9,42.1,77,29.97,10.0,SE,4.6,-,N/A,,Partly Cloudy,130,2011-10-12 01:53:00
8:53 PM,46.9,42.1,83,30.00,10.0,East,3.5,-,N/A,,Overcast,90,2011-10-12 02:53:00
9:53 PM,46.0,41.0,83,30.01,10.0,Calm,Calm,-,N/A,,Mostly Cloudy,0,2011-10-12 03:53:00
10:53 PM,43.0,39.0,86,30.03,10.0,Calm,Calm,-,N/A,,Clear,0,2011-10-12 04:53:00
11:53 PM,42.1,39.0,89,30.05,10.0,Calm,Calm,-,N/A,,Scattered Clouds,0,2011-10-12 05:53:00